[[{"header":{"parameterUnit":"m.s-1","parameterCategory":1,"la1":30.2991,"la2":30.254,"lo1":-89.0895,"lo2":-89.0444,"dy":0.0017,"dx":0.0017,"nx":28,"ny":28,"refTime":"2024-08-20T09:00:00:Z","depth":0,"parameterNumber":2,"parameterNumberName":"U-component_of_WINDS"},"data":[0,0,0,0,0,0,0,0,0,0,0,0,0,0,0,0,0,0,0,0,0,0,0,0,0,0,0,0,0,0,0,0,0,0,0,0,0,0,0,0,0,0,0,0,0,0,0,0,0,0,0,0,0,0,0,0,0,0,-0.3741,-0.3741,0,-0.3725,-0.3725,-0.3724,-0.3651,-0.3649,-0.3648,-0.3646,-0.3632,-0.3634,-0.3635,0,0,0,0,0,0,0,0,0,0,0,0,0,-0.3711,-0.3712,-0.3741,-0.3741,-0.3741,-0.3725,-0.3725,-0.3724,-0.3651,-0.3649,-0.3647,-0.3645,-0.3632,-0.3633,-0.3635,0,0,0,0,0,0,0,0,0,0,0,0,0,-0.3713,-0.3712,-0.3741,-0.3702,-0.3699,-0.3725,-0.3724,-0.3724,-0.3652,-0.3649,-0.3647,-0.3644,-0.3631,-0.3633,-0.3635,-0.3698,0,0,-0.3641,-0.3642,0,0,0,0,0,0,0,0,-0.3713,-0.3714,-0.3708,-0.3705,-0.3701,-0.3687,-0.3709,-0.3716,-0.3653,-0.367,-0.3646,-0.3643,-0.3653,-0.3653,-0.3655,-0.3698,-0.3697,-0.3641,-0.3642,-0.3643,-0.3643,0,0,0,0,0,0,0,-0.3713,-0.3714,-0.3735,-0.3708,-0.3704,-0.3686,-0.3684,-0.371,-0.3676,-0.3668,-0.3663,-0.3662,-0.365,-0.3654,-0.3655,-0.3697,-0.3641,-0.3642,-0.3644,-0.3644,-0.3789,-0.3792,0,0,0,0,0,0,-0.3718,-0.3715,-0.3735,-0.3734,-0.37,-0.3689,-0.3686,-0.3694,-0.3676,-0.367,-0.3664,-0.3658,-0.3652,-0.3653,-0.3654,-0.3727,-0.3643,-0.3645,-0.3646,-0.3787,-0.379,-0.3793,0,0,0,0,0,0,-0.3717,-0.372,-0.3736,-0.3723,-0.3723,-0.3692,-0.3702,-0.3695,-0.3699,-0.3672,-0.3666,-0.3673,-0.365,-0.3651,-0.3687,-0.3725,-0.3645,-0.3647,-0.3784,-0.3788,-0.3792,-0.3873,0,0,0,0,0,0,-0.3717,-0.372,-0.3744,-0.3724,-0.3724,-0.3769,-0.3704,-0.3697,-0.3702,-0.3694,-0.368,-0.3675,-0.3648,-0.3685,-0.3689,-0.3726,-0.3648,-0.378,-0.3785,-0.379,-0.3867,-0.3879,-0.389,0,0,0,0,0,-0.3716,-0.3768,-0.3745,-0.3748,-0.3753,-0.3772,-0.3772,-0.3739,-0.3705,-0.3729,-0.3711,-0.3675,-0.372,-0.3689,-0.3694,-0.3732,-0.3778,-0.3784,-0.379,-0.3861,-0.3877,-0.389,0,0,0,0,0,0,-0.3794,-0.3765,-0.3739,-0.3786,-0.3782,-0.3759,-0.3788,-0.3757,-0.3763,-0.3756,-0.3715,-0.3713,-0.3755,-0.3747,-0.3713,-0.3792,-0.3743,-0.375,-0.3796,-0.381,-0.3821,-0.3823,-0.365,0,0,0,0,0,-0.3817,-0.3834,-0.3807,-0.3851,-0.385,-0.382,-0.3827,-0.3802,-0.3796,-0.3794,-0.3779,-0.3776,-0.3789,-0.3799,-0.381,-0.3865,-0.3861,-0.3893,-0.3904,-0.3914,-0.3921,-0.395,-0.3964,-0.3813,-0.3813,-0.3813,0,0,-0.3864,-0.385,-0.3863,-0.3867,-0.386,-0.388,-0.3819,-0.3842,-0.3856,-0.3798,-0.3831,-0.382,-0.3814,-0.386,-0.3879,-0.3854,-0.3962,-0.3922,-0.393,-0.3932,-0.3958,-0.3972,-0.3985,-0.3818,-0.3817,-0.3816,0,0,-0.396,-0.3951,-0.3986,-0.3981,-0.3972,-0.3951,-0.3959,-0.3941,-0.3932,-0.3964,-0.3921,-0.3937,-0.3961,-0.3958,-0.3959,-0.4053,-0.402,-0.4058,-0.4119,-0.4147,-0.4159,-0.417,-0.4204,-0.4216,-0.4065,-0.4065,-0.4065,0,-0.402,-0.4047,-0.4009,-0.4034,-0.4037,-0.3984,-0.402,-0.4017,-0.4013,-0.4016,-0.3988,-0.4016,-0.4008,-0.4052,-0.4075,-0.4078,-0.4087,-0.406,-0.416,-0.417,-0.4179,-0.4211,-0.4224,-0.407,-0.4069,-0.4069,-0.4068,0,-0.4121,-0.414,-0.417,-0.4166,-0.4172,-0.4203,-0.417,-0.4181,-0.4155,-0.4138,-0.4171,-0.416,-0.4167,-0.4175,-0.4151,-0.4217,-0.4201,-0.4167,-0.4118,-0.4199,-0.4229,-0.424,-0.4076,-0.4075,-0.4073,-0.4072,0,0,-0.4268,-0.4241,-0.4252,-0.425,-0.4235,-0.4249,-0.4278,-0.4284,-0.4294,-0.4292,-0.4316,-0.4336,-0.4304,-0.4306,-0.4281,-0.4306,-0.4381,-0.4269,-0.4268,-0.4291,-0.4454,-0.448,-0.4495,-0.4359,-0.4361,-0.4363,-0.4454,0,-0.436,-0.4406,-0.4372,-0.4425,-0.4442,-0.4391,-0.4416,-0.441,-0.4394,-0.4407,-0.4389,-0.4405,-0.4362,-0.4362,-0.4385,-0.4368,-0.4414,-0.436,-0.4381,-0.4383,-0.4385,-0.451,-0.4538,-0.4624,-0.4465,-0.4467,-0.4469,0,-0.4473,-0.4475,-0.4529,-0.451,-0.4516,-0.4539,-0.4542,-0.4554,-0.4547,-0.4533,-0.4535,-0.4503,-0.453,-0.4481,-0.4518,-0.4483,-0.4489,-0.4482,-0.4484,-0.4486,-0.4431,-0.4515,-0.4651,-0.4665,-0.4486,-0.4485,-0.4484,0,-0.4575,-0.4591,-0.4625,-0.4624,-0.4603,-0.4621,-0.4613,-0.4602,-0.4608,-0.4611,-0.4614,-0.462,-0.4624,-0.463,-0.46,-0.4567,-0.4642,-0.459,-0.4632,-0.4633,-0.4651,-0.4651,-0.4791,-0.4654,-0.4654,-0.4654,-0.4654,0,-0.4682,-0.4717,-0.4671,-0.4692,-0.473,-0.4691,-0.473,-0.4717,-0.4708,-0.4726,-0.4683,-0.4701,-0.4661,-0.4675,-0.4653,-0.4687,-0.4689,-0.468,-0.4673,-0.4684,-0.4685,-0.4688,-0.4682,-0.4657,-0.4657,-0.4656,-0.4655,0,-0.4802,-0.4773,-0.4807,-0.4783,-0.4778,-0.4807,-0.4788,-0.4807,-0.4787,-0.4811,-0.4815,-0.4785,-0.4799,-0.477,-0.4781,-0.4766,-0.4815,-0.4799,-0.4817,-0.4813,-0.4857,-0.4854,-0.5005,-0.5023,-0.4875,-0.4876,-0.4877,0,-0.4873,-0.4898,-0.4877,-0.4886,-0.488,-0.4895,-0.49,-0.4862,-0.487,-0.4862,-0.4883,-0.4893,-0.49,-0.4926,-0.4906,-0.4914,-0.4898,-0.495,-0.4899,-0.4909,-0.4899,-0.4899,-0.4901,-0.4961,-0.4963,-0.4965,-0.4966,0,-0.5001,-0.4985,-0.4993,-0.4996,-0.5003,-0.5005,-0.5003,-0.5013,-0.4973,-0.4984,-0.4997,-0.5002,-0.5013,-0.5024,-0.5028,-0.502,-0.4987,-0.4982,-0.4992,-0.5004,-0.5014,-0.5009,-0.4847,-0.4979,-0.4978,-0.4977,-0.4976,-0.4975,-0.5099,-0.5119,-0.5107,-0.5118,-0.5112,-0.5111,-0.5128,-0.511,-0.5121,-0.5125,-0.5103,-0.5122,-0.5113,-0.5114,-0.511,-0.5125,-0.5102,-0.5117,-0.5121,-0.5125,-0.5133,-0.5011,-0.5126,-0.5125,-0.5125,-0.5124,-0.5124,0,-0.5225,-0.5214,-0.5225,-0.5223,-0.5231,-0.5198,-0.5194,-0.5204,-0.522,-0.5215,-0.5222,-0.5238,-0.5248,-0.5229,-0.5236,-0.5252,-0.5237,-0.5256,-0.5254,-0.5253,-0.5153,-0.5143,-0.5268,-0.5268,-0.5267,-0.5267,-0.5267,-0.5267,-0.5292,-0.5324,-0.5306,-0.5336,-0.5325,-0.5342,-0.5343,-0.5342,-0.5338,-0.5357,-0.5365,-0.5352,-0.5341,-0.5347,-0.5356,-0.5349,-0.5355,-0.5379,-0.5368,-0.5274,-0.526,-0.5247,-0.5238,-0.538,-0.538,-0.5467,-0.5468,-0.5468]},{"header":{"parameterUnit":"m.s-1","parameterCategory":1,"la1":30.2991,"la2":30.254,"lo1":-89.0895,"lo2":-89.0444,"dy":0.0017,"dx":0.0017,"nx":28,"ny":28,"refTime":"2024-08-20T09:00:00:Z","depth":0,"parameterNumber":3,"parameterNumberName":"V-component_of_WINDS"},"data":[0,0,0,0,0,0,0,0,0,0,0,0,0,0,0,0,0,0,0,0,0,0,0,0,0,0,0,0,0,0,0,0,0,0,0,0,0,0,0,0,0,0,0,0,0,0,0,0,0,0,0,0,0,0,0,0,0,0,-3.1785,-3.1786,0,-3.185,-3.185,-3.1851,-3.1815,-3.1813,-3.1811,-3.181,-3.1872,-3.1875,-3.1879,0,0,0,0,0,0,0,0,0,0,0,0,0,-3.1625,-3.1628,-3.1785,-3.1786,-3.1786,-3.1849,-3.185,-3.1851,-3.1815,-3.1813,-3.1811,-3.1809,-3.1871,-3.1875,-3.1879,0,0,0,0,0,0,0,0,0,0,0,0,0,-3.1693,-3.1629,-3.1785,-3.1776,-3.1776,-3.1849,-3.185,-3.1851,-3.1816,-3.1813,-3.181,-3.1808,-3.187,-3.1875,-3.1879,-3.1964,0,0,-3.1895,-3.1897,0,0,0,0,0,0,0,0,-3.1689,-3.1698,-3.1777,-3.1777,-3.1777,-3.1821,-3.1817,-3.1889,-3.1816,-3.18,-3.1809,-3.1806,-3.1857,-3.1863,-3.1881,-3.1967,-3.1969,-3.1895,-3.1898,-3.19,-3.1902,0,0,0,0,0,0,0,-3.1684,-3.1695,-3.181,-3.1778,-3.1778,-3.1767,-3.1774,-3.183,-3.1843,-3.1802,-3.1799,-3.1807,-3.1857,-3.1876,-3.1882,-3.197,-3.1895,-3.1899,-3.1903,-3.1904,-3.2126,-3.2129,0,0,0,0,0,0,-3.1681,-3.1692,-3.1808,-3.1812,-3.1725,-3.1772,-3.178,-3.181,-3.1842,-3.1845,-3.181,-3.1806,-3.1869,-3.1876,-3.1884,-3.1984,-3.19,-3.1905,-3.1908,-3.2123,-3.2127,-3.213,0,0,0,0,0,0,-3.1677,-3.1691,-3.1806,-3.1751,-3.1765,-3.1778,-3.1812,-3.1812,-3.1832,-3.1848,-3.185,-3.1828,-3.1867,-3.1877,-3.1944,-3.1985,-3.1907,-3.1912,-3.212,-3.2124,-3.2128,-3.2184,0,0,0,0,0,0,-3.1673,-3.169,-3.1724,-3.1752,-3.1768,-3.1866,-3.1815,-3.1816,-3.1841,-3.1836,-3.1866,-3.1868,-3.1866,-3.1937,-3.1949,-3.1991,-3.1916,-3.2116,-3.2122,-3.2127,-3.2179,-3.219,-3.2199,0,0,0,0,0,-3.1667,-3.1737,-3.1726,-3.174,-3.181,-3.1869,-3.1877,-3.1875,-3.1845,-3.1877,-3.1888,-3.1867,-3.1979,-3.1944,-3.1957,-3.2001,-3.2114,-3.212,-3.2127,-3.2174,-3.2188,-3.2199,0,0,0,0,0,0,-3.1711,-3.174,-3.1728,-3.1809,-3.1837,-3.1862,-3.1904,-3.189,-3.1925,-3.1919,-3.1913,-3.192,-3.1989,-3.2002,-3.1962,-3.2083,-3.2041,-3.2051,-3.2073,-3.2086,-3.2096,-3.2091,-3.192,0,0,0,0,0,-3.1731,-3.1777,-3.1799,-3.1868,-3.1883,-3.1891,-3.1916,-3.1912,-3.1939,-3.195,-3.1966,-3.1992,-3.2033,-3.206,-3.2099,-3.218,-3.2185,-3.2217,-3.2227,-3.2236,-3.2244,-3.2286,-3.23,-3.2151,-3.2151,-3.2151,0,0,-3.1771,-3.1792,-3.1822,-3.1877,-3.1898,-3.1944,-3.1901,-3.1952,-3.1986,-3.1958,-3.2022,-3.2034,-3.2063,-3.2137,-3.217,-3.215,-3.2286,-3.2244,-3.2251,-3.2254,-3.2294,-3.2308,-3.232,-3.2156,-3.2155,-3.2154,0,0,-3.1867,-3.1889,-3.1948,-3.197,-3.2002,-3.2007,-3.2021,-3.2049,-3.2056,-3.212,-3.21,-3.2139,-3.221,-3.2231,-3.2251,-3.2354,-3.2336,-3.2367,-3.2421,-3.2462,-3.2474,-3.2484,-3.2519,-3.2532,-3.2375,-3.2375,-3.2375,0,-3.1912,-3.1983,-3.198,-3.2033,-3.2057,-3.2035,-3.2093,-3.2114,-3.2157,-3.2173,-3.215,-3.2238,-3.2256,-3.2334,-3.2359,-3.2377,-3.2391,-3.2364,-3.2473,-3.2483,-3.2493,-3.2526,-3.2539,-3.2379,-3.2378,-3.2378,-3.2378,0,-3.2036,-3.2085,-3.2129,-3.2172,-3.2201,-3.2256,-3.226,-3.229,-3.2282,-3.2289,-3.2354,-3.2375,-3.2416,-3.2435,-3.2428,-3.2511,-3.2497,-3.2474,-3.2431,-3.251,-3.2541,-3.2554,-3.2384,-3.2383,-3.2382,-3.2381,0,0,-3.2162,-3.2202,-3.2218,-3.2237,-3.227,-3.2307,-3.2361,-3.2403,-3.2427,-3.2457,-3.2501,-3.2561,-3.2539,-3.2562,-3.2557,-3.2593,-3.2671,-3.2564,-3.2565,-3.2582,-3.2762,-3.2779,-3.2794,-3.266,-3.2662,-3.2664,-3.2759,0,-3.226,-3.2355,-3.2353,-3.2441,-3.2485,-3.2463,-3.251,-3.2534,-3.2542,-3.2579,-3.2586,-3.2629,-3.2597,-3.261,-3.2646,-3.2655,-3.2707,-3.2648,-3.2698,-3.27,-3.2691,-3.2811,-3.2829,-3.2919,-3.2772,-3.2774,-3.2775,0,-3.2386,-3.2421,-3.2514,-3.2539,-3.2558,-3.26,-3.2637,-3.2673,-3.27,-3.2702,-3.2728,-3.2717,-3.2769,-3.2725,-3.2796,-3.2756,-3.2776,-3.2784,-3.2787,-3.2791,-3.2742,-3.2817,-3.2947,-3.296,-3.2795,-3.2793,-3.2792,0,-3.2467,-3.2537,-3.2601,-3.2618,-3.265,-3.2679,-3.2694,-3.2718,-3.2743,-3.2775,-3.2791,-3.2828,-3.2848,-3.2877,-3.2876,-3.2844,-3.2947,-3.2904,-3.2949,-3.2949,-3.2971,-3.2969,-3.3105,-3.2986,-3.2986,-3.2986,-3.2985,0,-3.2576,-3.2633,-3.2638,-3.2677,-3.2739,-3.2736,-3.2797,-3.2808,-3.283,-3.2869,-3.2853,-3.289,-3.2887,-3.2924,-3.2923,-3.2981,-3.299,-3.2993,-3.2991,-3.2994,-3.2993,-3.3006,-3.2999,-3.2989,-3.2988,-3.2988,-3.2987,0,-3.2677,-3.2683,-3.2751,-3.2776,-3.2783,-3.2828,-3.2848,-3.2884,-3.289,-3.294,-3.2951,-3.296,-3.3003,-3.3004,-3.3053,-3.3052,-3.3122,-3.3115,-3.3114,-3.3112,-3.3157,-3.3152,-3.3305,-3.3324,-3.3193,-3.3195,-3.3196,0,-3.2746,-3.2789,-3.2818,-3.2844,-3.286,-3.2902,-3.2928,-3.2925,-3.2952,-3.2985,-3.3017,-3.3058,-3.3091,-3.3159,-3.3169,-3.3205,-3.3198,-3.3249,-3.3203,-3.3203,-3.3197,-3.3194,-3.3197,-3.3257,-3.3259,-3.326,-3.3261,0,-3.2866,-3.2866,-3.2904,-3.2943,-3.2974,-3.3004,-3.3032,-3.3053,-3.3054,-3.3084,-3.3128,-3.3154,-3.3203,-3.3244,-3.3279,-3.3292,-3.3276,-3.3275,-3.3287,-3.3289,-3.3287,-3.3287,-3.3137,-3.3272,-3.327,-3.327,-3.3269,-3.3269,-3.2952,-3.2989,-3.3015,-3.3057,-3.3078,-3.3104,-3.3139,-3.3149,-3.3186,-3.3227,-3.3223,-3.3271,-3.3295,-3.3341,-3.3357,-3.3393,-3.3375,-3.3393,-3.3397,-3.3402,-3.3406,-3.3282,-3.3399,-3.3399,-3.3399,-3.3399,-3.3398,0,-3.307,-3.3086,-3.3125,-3.3164,-3.3197,-3.3181,-3.321,-3.3238,-3.3281,-3.3305,-3.3338,-3.3387,-3.3426,-3.3438,-3.3475,-3.3502,-3.3495,-3.3511,-3.3509,-3.3512,-3.342,-3.3405,-3.3516,-3.3516,-3.3516,-3.3516,-3.3516,-3.3516,-3.3135,-3.3196,-3.32,-3.327,-3.3285,-3.3333,-3.3351,-3.3374,-3.3393,-3.345,-3.3482,-3.349,-3.3509,-3.3547,-3.3582,-3.3584,-3.3598,-3.3617,-3.3616,-3.353,-3.3518,-3.3507,-3.3493,-3.362,-3.362,-3.3704,-3.3705,-3.3706]}]]